Location: Barruelo
(41.2448°N, 3.8231°W)
Time: 02:01:38
(UTC+00:00)

MOS 1 Rocket - Pass Details

Date: 11 December 2025
Orbit: 609 x 814 km, 97.4° (Epoch: 14 January)

Event Time Altitude Azimuth Distance (km) Brightness Sun altitude
Rises 17:09:31 0° 135° (SE) 3,100 6.5 -4.7°
Reaches altitude 10° 17:12:00 10° 123° (ESE) 2,220 5.6 -5.1°
Maximum altitude 17:16:05 27° 67° (ENE) 1,418 4.3 -5.8°
Drops below altitude 10° 17:20:22 10° 11° (N) 2,335 5.7 -6.5°
Sets 17:23:02 0° 360° (N) 3,294 6.5 -7.0°
